Location: Cornospital
(48.0620°N, 3.3837°W)
Time: 21:06:37
(UTC+00:00)

Cosmos 2228 - Pass Details

Date: 17 June 2021
Orbit: 588 x 618 km, 82.5° (Epoch: 03 August)

Event Time Altitude Azimuth Distance (km) Brightness Sun altitude
Rises 23:05:06 0° 347° (NNW) 2,905 8.3 -16.8°
Reaches altitude 10° 23:07:21 10° 344° (NNW) 1,995 7.0 -17.0°
Maximum altitude 23:11:43 60° 265° (W) 712 3.3 -17.1°
Enters shadow 23:13:44 30° 196° (SSW) 1,120 3.9 -17.2°
